Weather History for Farmington, MO

Change the Weather History Date:

Monday, March 4, 2013

  Actual Average Record
Temperature  
Mean Temperature 40 °F -  
Max Temperature 48 °F 48 °F 66 °F (1997)
Min Temperature 33 °F 29 °F 6 °F (2002)
Degree Days  
Heating Degree Days 24    
Moisture  
Dew Point 31 °F    
Average Humidity 67    
Maximum Humidity 93    
Minimum Humidity 49    
Precipitation  
Precipitation 0.00 in - - ()
Sea Level Pressure  
Sea Level Pressure 29.86 in    
Wind  
Wind Speed 10 mph (SE)    
Max Wind Speed 20 mph    
Max Gust Speed 25 mph    
Visibility 10 miles    
Events      
Averages and records for this station are not official NWS values.
T = Trace of Precipitation, MM = Missing Value Source: NWS Daily Summary

Daily Weather History Graph

Daily Weather History Graph

Search for Another Location

Airport:

Trip Planner

Search our weather history database for the weather conditions in past years. The results will help you decide how hot, cold, wet, or windy it might be!

Date:

Astronomy

Mar. 04, 2013 Rise Set
Actual Time 6:28 AM CST 5:58 PM CST
Civil Twilight 6:02 AM CST 6:24 PM CST
Nautical Twilight 5:32 AM CST 6:55 PM CST
Astronomical Twilight 5:01 AM CST 7:25 PM CST
Moon 12:33 AM CST (3/4) 10:45 AM CST (3/4)
Length of Visible Light 12h 22m
Length of Day
11h 30m
Waning Gibbous, 52% of the Moon is Illuminated
Mar 4
Waning Gibbous
Mar 4
Last Quarter
Mar 11
New
Mar 19
First Quarter
Mar 27
Full

Hourly Weather History & Observations

Time (CST) Temp. Windchill Dew Point Humidity Pressure Visibility Wind Dir Wind Speed Gust Speed Precip Events Conditions
12:15 AM 35.6 °F 29.2 °F 24.8 °F 65% 30.03 in 10.0 mi SE 8.1 mph - N/A   Scattered Clouds
12:35 AM 35.6 °F 28.6 °F 24.8 °F 65% 30.03 in 10.0 mi SSE 9.2 mph - N/A   Clear
12:55 AM 35.6 °F 27.5 °F 24.8 °F 65% 30.02 in 10.0 mi SSE 11.5 mph - N/A   Clear
1:15 AM 35.6 °F 28.6 °F 24.8 °F 65% 30.03 in 10.0 mi SE 9.2 mph - N/A   Clear
1:35 AM 33.8 °F 27.0 °F 24.8 °F 70% 30.01 in 10.0 mi SE 8.1 mph - N/A   Clear
1:55 AM 33.8 °F 26.4 °F 24.8 °F 70% 30.01 in 10.0 mi SE 9.2 mph - N/A   Clear
2:15 AM 33.8 °F 25.3 °F 24.8 °F 70% 30.00 in 10.0 mi SE 11.5 mph - N/A   Scattered Clouds
2:35 AM 33.8 °F 25.3 °F 24.8 °F 70% 29.99 in 10.0 mi SE 11.5 mph - N/A   Mostly Cloudy
2:55 AM 33.8 °F 25.8 °F 23.0 °F 65% 29.98 in 10.0 mi SE 10.4 mph - N/A   Scattered Clouds
3:15 AM 33.8 °F 25.3 °F 21.2 °F 60% 29.97 in 10.0 mi SE 11.5 mph - N/A   Partly Cloudy
3:35 AM 33.8 °F 25.8 °F 21.2 °F 60% 29.96 in 10.0 mi SE 10.4 mph - N/A   Partly Cloudy
3:55 AM 33.8 °F 25.8 °F 21.2 °F 60% 29.96 in 10.0 mi SE 10.4 mph - N/A   Partly Cloudy
4:15 AM 35.6 °F 27.1 °F 21.2 °F 56% 29.96 in 10.0 mi SE 12.7 mph - N/A   Clear
4:35 AM 35.6 °F 27.1 °F 21.2 °F 56% 29.95 in 10.0 mi SE 12.7 mph - N/A   Clear
4:55 AM 35.6 °F 27.5 °F 21.2 °F 56% 29.94 in 10.0 mi SE 11.5 mph 17.3 mph N/A   Clear
5:15 AM 35.6 °F 28.0 °F 21.2 °F 56% 29.94 in 10.0 mi SE 10.4 mph - N/A   Clear
5:35 AM 35.6 °F 28.0 °F 21.2 °F 56% 29.93 in 10.0 mi SE 10.4 mph - N/A   Clear
5:55 AM 35.6 °F 29.9 °F 21.2 °F 56% 29.93 in 10.0 mi SE 6.9 mph 17.3 mph N/A   Clear
6:15 AM 35.6 °F 27.5 °F 21.2 °F 56% 29.93 in 10.0 mi SE 11.5 mph - N/A   Clear
6:35 AM 35.6 °F 28.6 °F 21.2 °F 56% 29.93 in 10.0 mi SE 9.2 mph 16.1 mph N/A   Clear
6:55 AM 35.6 °F 29.2 °F 21.2 °F 56% 29.92 in 10.0 mi SE 8.1 mph 17.3 mph N/A   Clear
7:15 AM 35.6 °F 25.9 °F 21.2 °F 56% 29.91 in 10.0 mi SE 16.1 mph 20.7 mph N/A   Clear
7:35 AM 37.4 °F 29.3 °F 21.2 °F 52% 29.91 in 10.0 mi SE 12.7 mph 18.4 mph N/A   Clear
7:55 AM 37.4 °F 29.3 °F 21.2 °F 52% 29.91 in 10.0 mi SE 12.7 mph 23.0 mph N/A   Clear
8:15 AM 37.4 °F 28.5 °F 21.2 °F 52% 29.91 in 10.0 mi SSE 15.0 mph 19.6 mph N/A   Clear
8:35 AM 37.4 °F 28.9 °F 23.0 °F 56% 29.90 in 10.0 mi SE 13.8 mph 18.4 mph N/A   Clear
8:55 AM 39.2 °F 30.5 °F 23.0 °F 52% 29.89 in 10.0 mi SSE 16.1 mph 20.7 mph N/A   Clear
9:15 AM 39.2 °F 31.2 °F 24.8 °F 56% 29.89 in 10.0 mi SE 13.8 mph - N/A   Clear
9:35 AM 41.0 °F 32.5 °F 24.8 °F 53% 29.88 in 10.0 mi SSE 17.3 mph - N/A   Clear
9:55 AM 41.0 °F 31.9 °F 24.8 °F 53% 29.88 in 10.0 mi SSE 19.6 mph 23.0 mph N/A   Clear
10:15 AM 42.8 °F 35.4 °F 26.6 °F 53% 29.86 in 10.0 mi SE 15.0 mph 25.3 mph N/A   Clear
10:35 AM 44.6 °F 37.8 °F 26.6 °F 49% 29.85 in 10.0 mi SSE 15.0 mph 24.2 mph N/A   Clear
10:55 AM 44.6 °F 37.4 °F 26.6 °F 49% 29.85 in 10.0 mi SSE 16.1 mph - N/A   Scattered Clouds
11:15 AM 44.6 °F 37.2 °F 28.4 °F 53% 29.84 in 10.0 mi SSE 17.3 mph - N/A   Overcast
11:35 AM 46.4 °F 40.1 °F 28.4 °F 50% 29.83 in 10.0 mi South 15.0 mph 21.9 mph N/A   Overcast
11:55 AM 46.4 °F 40.1 °F 32.0 °F 57% 29.82 in 10.0 mi SSE 15.0 mph 19.6 mph N/A   Overcast
12:15 PM 46.4 °F 39.8 °F 30.2 °F 53% 29.81 in 10.0 mi South 16.1 mph 20.7 mph N/A   Overcast
12:55 PM 48.2 °F - 33.8 °F 58% 29.79 in 10.0 mi South 13.8 mph 21.9 mph N/A   Overcast
1:15 PM 48.2 °F - 33.8 °F 58% 29.79 in 10.0 mi South 17.3 mph 21.9 mph N/A   Overcast
1:35 PM 48.2 °F - 33.8 °F 58% 29.79 in 10.0 mi SSE 16.1 mph 19.6 mph N/A   Overcast
1:55 PM 48.2 °F - 33.8 °F 58% 29.78 in 10.0 mi South 16.1 mph 20.7 mph N/A   Overcast
2:15 PM 48.2 °F - 35.6 °F 62% 29.78 in 10.0 mi SSE 15.0 mph 20.7 mph N/A   Overcast
2:35 PM 48.2 °F - 35.6 °F 62% 29.78 in 10.0 mi SSE 10.4 mph - N/A   Overcast
2:55 PM 48.2 °F - 35.6 °F 62% 29.77 in 10.0 mi SSE 13.8 mph - N/A   Overcast
3:15 PM 48.2 °F - 35.6 °F 62% 29.77 in 10.0 mi SSE 12.7 mph - N/A   Overcast
3:35 PM 48.2 °F - 37.4 °F 66% 29.77 in 10.0 mi South 12.7 mph - N/A   Overcast
3:55 PM 48.2 °F - 37.4 °F 66% 29.78 in 10.0 mi SE 9.2 mph - N/A   Overcast
4:15 PM 48.2 °F - 37.4 °F 66% 29.77 in 10.0 mi SSE 10.4 mph - N/A   Overcast
4:35 PM 48.2 °F - 37.4 °F 66% 29.77 in 10.0 mi SSE 8.1 mph - N/A   Overcast
4:55 PM 48.2 °F - 39.2 °F 71% 29.77 in 10.0 mi SSE 6.9 mph - N/A   Overcast
5:15 PM 46.4 °F 44.3 °F 37.4 °F 71% 29.78 in 10.0 mi SE 4.6 mph - N/A   Overcast
5:35 PM 46.4 °F 43.5 °F 39.2 °F 76% 29.79 in 10.0 mi SE 5.8 mph - N/A   Overcast
5:55 PM 46.4 °F 45.2 °F 39.2 °F 76% 29.80 in 10.0 mi SE 3.5 mph - N/A   Overcast
6:15 PM 46.4 °F 43.5 °F 39.2 °F 76% 29.80 in 10.0 mi SE 5.8 mph - N/A   Overcast
6:35 PM 46.4 °F 43.5 °F 39.2 °F 76% 29.80 in 10.0 mi SE 5.8 mph - N/A   Overcast
6:55 PM 44.6 °F 43.1 °F 41.0 °F 87% 29.81 in 10.0 mi SE 3.5 mph - N/A   Overcast
7:15 PM 44.6 °F 43.1 °F 41.0 °F 87% 29.80 in 9.0 mi SE 3.5 mph - N/A   Overcast
7:35 PM 44.6 °F 43.1 °F 42.8 °F 93% 29.80 in 10.0 mi SSE 3.5 mph - N/A   Overcast
7:55 PM 44.6 °F - 41.0 °F 87% 29.80 in 10.0 mi Calm Calm - N/A   Overcast
8:35 PM 44.6 °F - 41.0 °F 87% 29.80 in 10.0 mi Calm Calm - N/A   Overcast
8:55 PM 44.6 °F 42.2 °F 41.0 °F 87% 29.79 in 10.0 mi East 4.6 mph - N/A   Mostly Cloudy
9:15 PM 42.8 °F - 41.0 °F 93% 29.80 in 10.0 mi Calm Calm - N/A   Scattered Clouds
9:35 PM 42.8 °F - 39.2 °F 87% 29.80 in 9.0 mi Calm Calm - N/A   Mostly Cloudy
9:55 PM 42.8 °F - 39.2 °F 87% 29.80 in 9.0 mi Calm Calm - N/A   Mostly Cloudy
10:15 PM 44.6 °F - 41.0 °F 87% 29.80 in 9.0 mi Calm Calm - N/A   Overcast
10:35 PM 42.8 °F - 41.0 °F 93% 29.80 in 9.0 mi Calm Calm - N/A   Mostly Cloudy
10:55 PM 42.8 °F - 41.0 °F 93% 29.80 in 8.0 mi Calm Calm - N/A   Overcast
11:15 PM 42.8 °F - 41.0 °F 93% 29.79 in 9.0 mi Calm Calm - N/A   Overcast
11:35 PM 42.8 °F - 41.0 °F 93% 29.80 in 9.0 mi Calm Calm - N/A   Overcast
11:55 PM 42.8 °F - 41.0 °F 93% 29.79 in 10.0 mi Calm Calm - N/A   Overcast